Regional Weather Roundup
Issued by NWS

Home | Current Version | Previous Version | Graphics & Text | Print | Product List | Glossary On
Versions: 1 2 3 4 5 6 7 8 9 10 11 12 13 14 15 16 17 18 19 20 21 22 23 24 25 26 27 28 29 30 31 32 33 34 35 36 37 38 39 40 41 42 43 44 45 46 47 48 49 50
000
ASUS43 KIND 190859
RWRIN

WEATHER ROUNDUP FOR INDIANA
NATIONAL WEATHER SERVICE INDIANAPOLIS IN
500 AM EDT SUN APR 19 2015

NOTE: "FAIR" INDICATES FEW OR NO CLOUDS BELOW 12,000 FEET WITH NO
SIGNIFICANT WEATHER AND/OR OBSTRUCTIONS TO VISIBILITY.

* - STATION DOES NOT REPORT WEATHER SUCH AS PRECIPITATION OR FOG.

+ - STATION NOT QUALITY CONTROLLED BY THE NATIONAL WEATHER SERVICE.
    USE DATA WITH CAUTION...ESPECIALLY DEWPOINT AND RELATIVE
    HUMIDITY OBSERVATIONS.

INZ001>003-010>013-019-020-191000-
NORTHWEST INDIANA

CITY           SKY/WX    TMP DP  RH WIND       PRES   REMARKS
RENSSELAER +   MOCLDY    52  37  58 E12       29.90F

$$

LMZ046-743>745-191000-
SOUTHERN LAKE MICHIGAN

STATION/POSITION TIME  TEMP WIND        PRES
                       AIR  DIR/SP/G
                 (UTC) (F)  (DEG/KT/KT) (MB)
BURNS HARBOR     0800   57  120/ 17/ 23 1013.2F
MICHIGAN CITY    0800   56   90/ 12/ 17   N/A
4NW MICH CITY    0800   53  120/ 12/ 16   N/A

$$

INZ004-005-014>016-021>024-191000-
NORTH CENTRAL INDIANA

CITY           SKY/WX    TMP DP  RH WIND       PRES   REMARKS
GOSHEN         MOCLDY    51  32  48 E15       29.95F
SOUTH BEND     MOCLDY    55  28  35 E14       29.96F

$$

INZ006>009-017-018-025>027-191000-
NORTHEAST INDIANA

CITY           SKY/WX    TMP DP  RH WIND       PRES   REMARKS
ANGOLA *+      CLEAR     50  28  43 E16       30.00S
FORT WAYNE     MOCLDY    49  36  61 E14       29.97F

$$

INZ028-029-035-036-043>045-051>053-191000-
WEST CENTRAL INDIANA

CITY           SKY/WX    TMP DP  RH WIND       PRES   REMARKS
CRAWFORDSVL +  CLOUDY    56  42  60 E9        29.86F
GREENCASTLE +  CLOUDY    61  45  55 E9        29.85F
LAFAYETTE      CLOUDY    55  40  56 E13       29.87F
TERRE HAUTE    CLOUDY    60  48  64 E7        29.82F

$$

INZ030>032-037>040-046>048-054>057-064-065-191000-
CENTRAL INDIANA

CITY           SKY/WX    TMP DP  RH WIND       PRES   REMARKS
INDIANAPOLIS   CLOUDY    61  47  59 E13       29.84F
-EAGLE CREEK   CLOUDY    59  47  64 E7        29.86F
KOKOMO *+      MOCLDY    52  39  62 E14       29.91F
MT COMFORT *+  CLOUDY    57  41  54 E9        29.88F
SHELBYVILLE    CLOUDY    62  49  62 E12       29.86F

$$

INZ033-034-041-042-049-050-058-059-191000-
EAST CENTRAL INDIANA

CITY           SKY/WX    TMP DP  RH WIND       PRES   REMARKS
MUNCIE         CLOUDY    52  39  61 E10       29.91F

$$

INZ060-061-067>069-081>083-085>088-191000-
SOUTHWEST INDIANA

CITY           SKY/WX    TMP DP  RH WIND       PRES   REMARKS
EVANSVILLE     LGT RAIN  62  57  83 NE3       29.76F
HUNTINGBURG *+ CLOUDY    66  46  48 E12       29.77F

$$

INZ062-063-066-070>080-084-089>092-191000-
SOUTH CENTRAL AND SOUTHEAST INDIANA

CITY           SKY/WX    TMP DP  RH WIND       PRES   REMARKS
BLOOMINGTON    CLOUDY    65  45  48 E8        29.82F
MADISON *+     CLOUDY    64  39  39 E9        29.85F

$$




USA.gov is the U.S. government's official web portal to all federal, state and local government web resources and services.